Atmospheric History
12/06/2017 18:46  to  12/7/2017 18:46
Change End Date:
To complete the export process:
1) Select all of the data below
2) Copy the data to the clipboard
3) Open a word processor such as Notepad
4) Paste the data into the word processor
5) Save the file

Date/Time (MDT), AirTemp, RH, Dewpoint ,AvgWindSpeed, GustWindSpeed, WindDirection, PrecipType, PrecipIntensity, PrecipAccumulation, PrecipRate
12/07/2017 18:40, 43, 35, 17 ,24, 28, NW, None, None, ,  
12/07/2017 18:33, 44, 34, 17 ,22, 29, NW, None, None, ,  
12/07/2017 18:30, 44, 34, 17 ,22, 29, NW, None, None, ,  
12/07/2017 18:20, 44, 34, 17 ,21, 26, NW, None, None, ,  
12/07/2017 18:18, 44, 34, 17 ,21, 26, NW, None, None, ,  
12/07/2017 18:10, 43, 34, 17 ,20, 25, NW, None, None, ,  
12/07/2017 18:03, 43, 34, 17 ,21, 25, NW, None, None, ,  
12/07/2017 18:00, 43, 35, 17 ,19, 25, W, None, None, ,  
12/07/2017 17:50, 42, 36, 18 ,20, 27, NW, None, None, ,  
12/07/2017 17:48, 43, 36, 18 ,20, 26, NW, None, None, ,  
12/07/2017 17:40, 43, 36, 18 ,20, 24, NW, None, None, ,  
12/07/2017 17:33, 43, 36, 18 ,20, 25, NW, None, None, ,  
12/07/2017 17:30, 43, 35, 18 ,21, 25, NW, None, None, ,  
12/07/2017 17:20, 43, 35, 18 ,22, 28, W, None, None, ,  
12/07/2017 17:18, 43, 35, 18 ,21, 26, NW, None, None, ,  
12/07/2017 17:10, 43, 35, 17 ,20, 26, NW, None, None, ,  
12/07/2017 17:03, 44, 34, 17 ,21, 26, NW, None, None, ,  
12/07/2017 17:00, 44, 34, 17 ,22, 25, NW, None, None, ,  
12/07/2017 16:49, 44, 34, 17 ,21, 28, NW, None, None, ,  
12/07/2017 16:48, 44, 34, 17 ,21, 28, NW, None, None, ,  
12/07/2017 16:39, 44, 33, 17 ,20, 27, NW, None, None, ,  
12/07/2017 16:33, 44, 33, 17 ,21, 29, NW, None, None, ,  
12/07/2017 16:29, 44, 33, 17 ,22, 29, NW, None, None, ,  
12/07/2017 16:19, 44, 33, 17 ,20, 26, NW, None, None, ,  
12/07/2017 16:18, 45, 32, 17 ,21, 26, NW, None, None, ,  
12/07/2017 16:09, 45, 32, 17 ,22, 28, NW, None, None, ,  
12/07/2017 16:03, 45, 32, 17 ,21, 30, NW, None, None, ,  
12/07/2017 15:59, 46, 31, 17 ,22, 30, NW, None, None, ,  
12/07/2017 15:49, 46, 31, 17 ,23, 31, NW, None, None, ,  
12/07/2017 15:48, 46, 31, 17 ,21, 29, NW, None, None, ,  
12/07/2017 15:39, 46, 31, 17 ,21, 29, NW, None, None, ,  
12/07/2017 15:33, 46, 30, 17 ,19, 32, NW, None, None, ,  
12/07/2017 15:29, 47, 30, 17 ,24, 32, NW, None, None, ,  
12/07/2017 15:19, 47, 30, 17 ,22, 27, NW, None, None, ,  
12/07/2017 15:18, 47, 30, 17 ,23, 27, NW, None, None, ,  
12/07/2017 15:09, 47, 29, 17 ,20, 32, NW, None, None, ,  
12/07/2017 15:03, 47, 29, 17 ,21, 34, NW, None, None, ,  
12/07/2017 14:59, 47, 29, 17 ,24, 34, NW, None, None, ,  
12/07/2017 14:49, 48, 29, 17 ,22, 28, NW, None, None, ,  
12/07/2017 14:48, 48, 29, 17 ,22, 28, NW, None, None, ,  
12/07/2017 14:39, 47, 29, 17 ,18, 30, NW, None, None, ,  
12/07/2017 14:33, 47, 29, 17 ,22, 34, NW, None, None, ,  
12/07/2017 14:29, 47, 29, 16 ,25, 34, NW, None, None, ,  
12/07/2017 14:19, 47, 29, 17 ,23, 31, NW, None, None, ,  
12/07/2017 14:18, 47, 29, 17 ,22, 31, NW, None, None, ,  
12/07/2017 14:08, 48, 29, 18 ,19, 27, NW, None, None, ,  
12/07/2017 14:03, 47, 29, 17 ,20, 32, NW, None, None, ,  
12/07/2017 13:58, 47, 29, 17 ,22, 32, NW, None, None, ,  
12/07/2017 13:48, 48, 29, 18 ,19, 32, NW, None, None, ,  
12/07/2017 13:48, 48, 29, 17 ,21, 32, NW, None, None, ,  
12/07/2017 13:38, 47, 29, 17 ,27, 37, NW, None, None, ,  
12/07/2017 13:33, 47, 29, 17 ,29, 37, NW, None, None, ,  
12/07/2017 13:28, 48, 29, 17 ,29, 37, NW, None, None, ,  
12/07/2017 13:18, 47, 30, 18 ,24, 33, NW, None, None, ,  
12/07/2017 13:18, 47, 30, 18 ,23, 33, NW, None, None, ,  
12/07/2017 13:08, 47, 29, 17 ,22, 35, NW, None, None, ,  
12/07/2017 13:03, 48, 29, 17 ,27, 36, NW, None, None, ,  
12/07/2017 12:58, 48, 29, 18 ,27, 36, NW, None, None, ,  
12/07/2017 12:48, 48, 31, 19 ,22, 31, NW, None, None, ,  
12/07/2017 12:48, 48, 31, 19 ,21, 31, NW, None, None, ,  
12/07/2017 12:38, 47, 31, 19 ,21, 34, W, None, None, ,  
12/07/2017 12:33, 47, 31, 18 ,24, 35, NW, None, None, ,  
12/07/2017 12:28, 47, 31, 18 ,27, 35, NW, None, None, ,  
12/07/2017 12:18, 45, 33, 18 ,21, 30, NW, None, None, ,  
12/07/2017 12:18, 45, 33, 18 ,21, 30, NW, None, None, ,  
12/07/2017 12:08, 44, 34, 18 ,20, 34, NW, None, None, ,  
12/07/2017 11:58, 44, 35, 18 ,17, 26, NW, None, None, ,  
12/07/2017 11:48, 44, 34, 18 ,21, 33, NW, None, None, ,  
12/07/2017 11:48, 44, 34, 18 ,22, 33, NW, None, None, ,  
12/07/2017 11:38, 44, 34, 18 ,25, 35, NW, None, None, ,  
12/07/2017 11:33, 44, 34, 18 ,23, 35, NW, None, None, ,  
12/07/2017 11:27, 44, 35, 18 ,27, 32, NW, None, None, ,  
12/07/2017 11:18, 43, 35, 18 ,26, 34, NW, None, None, ,  
12/07/2017 11:17, 44, 35, 18 ,27, 34, NW, None, None, ,  
12/07/2017 11:07, 43, 37, 19 ,25, 32, NW, None, None, ,  
12/07/2017 11:03, 42, 39, 19 ,23, 30, NW, None, None, ,  
12/07/2017 10:57, 41, 40, 19 ,23, 30, NW, None, None, ,  
12/07/2017 10:48, 41, 41, 19 ,23, 30, NW, None, None, ,  
12/07/2017 10:47, 41, 41, 19 ,23, 30, NW, None, None, ,  
12/07/2017 10:37, 40, 42, 19 ,21, 29, NW, None, None, ,  
12/07/2017 10:33, 40, 42, 19 ,23, 30, NW, None, None, ,  
12/07/2017 10:27, 40, 42, 19 ,24, 34, NW, None, None, ,  
12/07/2017 10:18, 40, 43, 19 ,23, 29, NW, None, None, ,  
12/07/2017 10:17, 40, 43, 19 ,23, 29, NW, None, None, ,  
12/07/2017 10:07, 39, 45, 19 ,21, 28, NW, None, None, ,  
12/07/2017 10:03, 39, 45, 19 ,21, 28, NW, None, None, ,  
12/07/2017 09:57, 38, 46, 20 ,18, 25, NW, None, None, ,  
12/07/2017 09:48, 38, 47, 20 ,19, 28, NW, None, None, ,  
12/07/2017 09:47, 38, 47, 20 ,18, 28, NW, None, None, ,  
12/07/2017 09:37, 38, 46, 19 ,24, 30, NW, None, None, ,  
12/07/2017 09:33, 38, 46, 19 ,23, 30, NW, None, None, ,  
12/07/2017 09:27, 38, 47, 19 ,21, 29, NW, None, None, ,  
12/07/2017 09:18, 37, 47, 19 ,23, 29, NW, None, None, ,  
12/07/2017 09:17, 37, 48, 19 ,22, 29, NW, None, None, ,  
12/07/2017 09:07, 37, 47, 19 ,24, 31, NW, None, None, ,  
12/07/2017 09:03, 37, 48, 19 ,22, 31, NW, None, None, ,  
12/07/2017 08:57, 37, 49, 19 ,22, 29, NW, None, None, ,  
12/07/2017 08:48, 37, 48, 19 ,19, 26, NW, None, None, ,  
12/07/2017 08:47, 37, 47, 19 ,21, 26, NW, None, None, ,  
12/07/2017 08:36, 37, 48, 19 ,17, 24, NW, None, None, ,  
12/07/2017 08:33, 37, 49, 19 ,19, 25, NW, None, None, ,  
12/07/2017 08:26, 37, 48, 19 ,19, 27, NW, None, None, ,  
12/07/2017 08:18, 36, 50, 19 ,18, 25, W, None, None, ,  
12/07/2017 08:16, 36, 50, 19 ,17, 25, W, None, None, ,  
12/07/2017 08:06, 35, 51, 19 ,18, 24, NW, None, None, ,  
12/07/2017 08:03, 35, 52, 19 ,20, 24, W, None, None, ,  
12/07/2017 07:56, 34, 54, 19 ,16, 23, W, None, None, ,  
12/07/2017 07:48, 34, 53, 19 ,18, 22, W, None, None, ,  
12/07/2017 07:46, 34, 53, 19 ,18, 22, W, None, None, ,  
12/07/2017 07:36, 34, 52, 18 ,15, 18, W, None, None, ,  
12/07/2017 07:33, 33, 54, 19 ,14, 19, W, None, None, ,  
12/07/2017 07:26, 33, 54, 18 ,16, 20, W, None, None, ,  
12/07/2017 07:18, 32, 55, 18 ,16, 18, W, None, None, ,  
12/07/2017 07:16, 32, 56, 18 ,15, 18, W, None, None, ,  
12/07/2017 07:06, 32, 56, 18 ,14, 19, W, None, None, ,  
12/07/2017 07:03, 32, 54, 18 ,14, 19, W, None, None, ,  
12/07/2017 06:56, 33, 54, 18 ,15, 20, W, None, None, ,  
12/07/2017 06:48, 33, 54, 18 ,15, 18, W, None, None, ,  
12/07/2017 06:46, 32, 56, 18 ,13, 18, W, None, None, ,  
12/07/2017 06:36, 30, 60, 18 ,15, 17, W, None, None, ,  
12/07/2017 06:33, 30, 61, 18 ,14, 17, W, None, None, ,  
12/07/2017 06:26, 28, 65, 18 ,12, 14, W, None, None, ,  
12/07/2017 06:18, 28, 64, 18 ,11, 17, W, None, None, ,  
12/07/2017 06:16, 29, 63, 18 ,12, 17, W, None, None, ,  
12/07/2017 06:05, 28, 64, 18 ,14, 16, W, None, None, ,  
12/07/2017 06:03, 28, 66, 18 ,13, 16, W, None, None, ,  
12/07/2017 05:55, 27, 66, 17 ,12, 16, W, None, None, ,  
12/07/2017 05:48, 28, 66, 18 ,14, 16, W, None, None, ,  
12/07/2017 05:45, 28, 65, 17 ,13, 16, W, None, None, ,  
12/07/2017 05:35, 28, 62, 17 ,12, 15, W, None, None, ,  
12/07/2017 05:33, 28, 62, 17 ,11, 14, W, None, None, ,  
12/07/2017 05:25, 29, 61, 17 ,12, 14, W, None, None, ,  
12/07/2017 05:18, 29, 59, 17 ,13, 15, W, None, None, ,  
12/07/2017 05:15, 29, 59, 17 ,12, 15, W, None, None, ,  
12/07/2017 05:05, 29, 59, 17 ,12, 14, W, None, None, ,  
12/07/2017 05:03, 29, 59, 17 ,12, 14, W, None, None, ,  
12/07/2017 04:55, 30, 57, 16 ,11, 12, W, None, None, ,  
12/07/2017 04:48, 30, 56, 17 ,11, 12, W, None, None, ,  
12/07/2017 04:45, 30, 56, 17 ,11, 12, W, None, None, ,  
12/07/2017 04:35, 30, 57, 17 ,12, 14, W, None, None, ,  
12/07/2017 04:33, 30, 57, 17 ,12, 13, W, None, None, ,  
12/07/2017 04:25, 29, 59, 17 ,11, 12, W, None, None, ,  
12/07/2017 04:18, 28, 61, 16 ,9, 10, W, None, None, ,  
12/07/2017 04:15, 27, 63, 16 ,7, 9, W, None, None, ,  
12/07/2017 04:05, 24, 69, 15 ,8, 9, W, None, None, ,  
12/07/2017 04:03, 24, 68, 15 ,8, 9, W, None, None, ,  
12/07/2017 03:55, 23, 71, 16 ,7, 8, W, None, None, ,  
12/07/2017 03:48, 22, 73, 15 ,7, 7, W, None, None, ,  
12/07/2017 03:45, 22, 75, 16 ,6, 7, W, None, None, ,  
12/07/2017 03:34, 23, 74, 16 ,6, 8, SW, None, None, ,  
12/07/2017 03:33, 24, 69, 15 ,6, 8, SW, None, None, ,  
12/07/2017 03:24, 24, 68, 15 ,7, 9, W, None, None, ,  
12/07/2017 03:18, 22, 79, 17 ,7, 7, W, None, None, ,  
12/07/2017 03:14, 21, 82, 17 ,7, 7, W, None, None, ,  
12/07/2017 03:04, 21, 87, 17 ,7, 7, W, None, None, ,  
12/07/2017 03:03, 21, 87, 17 ,7, 7, W, None, None, ,  
12/07/2017 02:54, 22, 84, 17 ,6, 7, SW, None, None, ,  
12/07/2017 02:48, 24, 71, 16 ,6, 8, SW, None, None, ,  
12/07/2017 02:44, 24, 70, 16 ,5, 8, SW, None, None, ,  
12/07/2017 02:34, 26, 67, 16 ,7, 9, W, None, None, ,  
12/07/2017 02:33, 26, 68, 16 ,7, 10, W, None, None, ,  
12/07/2017 02:24, 26, 68, 17 ,9, 10, W, None, None, ,  
12/07/2017 02:18, 25, 72, 18 ,7, 9, W, None, None, ,  
12/07/2017 02:14, 25, 74, 18 ,7, 8, W, None, None, ,  
12/07/2017 02:04, 24, 77, 18 ,6, 6, W, None, None, ,  
12/07/2017 02:03, 24, 77, 18 ,6, 6, W, None, None, ,  
12/07/2017 01:54, 24, 77, 19 ,6, 6, W, None, None, ,  
12/07/2017 01:48, 26, 71, 19 ,5, 7, W, None, None, ,  
12/07/2017 01:44, 28, 69, 19 ,4, 8, SW, None, None, ,  
12/07/2017 01:34, 26, 74, 19 ,7, 8, W, None, None, ,  
12/07/2017 01:33, 26, 74, 19 ,7, 8, W, None, None, ,  
12/07/2017 01:24, 23, 85, 19 ,6, 6, W, None, None, ,  
12/07/2017 01:18, 22, 88, 19 ,6, 6, SW, None, None, ,  
12/07/2017 01:14, 21, 89, 18 ,6, 7, SW, None, None, ,  
12/07/2017 01:04, 21, 89, 18 ,7, 8, SW, None, None, ,  
12/07/2017 01:03, 21, 89, 18 ,7, 8, SW, None, None, ,  
12/07/2017 00:53, 21, 88, 18 ,7, 8, SW, None, None, ,  
12/07/2017 00:48, 21, 88, 18 ,6, 6, SW, None, None, ,  
12/07/2017 00:43, 21, 88, 18 ,6, 6, SW, None, None, ,  
12/07/2017 00:33, 20, 89, 18 ,7, 9, SW, None, None, ,  
12/07/2017 00:33, 20, 89, 18 ,7, 9, SW, None, None, ,  
12/07/2017 00:23, 20, 89, 17 ,7, 8, SW, None, None, ,  
12/07/2017 00:18, 20, 88, 17 ,7, 8, SW, None, None, ,  
12/07/2017 00:13, 21, 87, 17 ,7, 8, SW, None, None, ,  
12/07/2017 00:03, 21, 85, 17 ,8, 9, SW, None, None, ,  
12/07/2017 00:03, 21, 85, 17 ,8, 9, SW, None, None, ,  
12/06/2017 23:53, 22, 83, 18 ,6, 7, SW, None, None, ,  
12/06/2017 23:48, 22, 82, 18 ,6, 9, SW, None, None, ,  
12/06/2017 23:43, 23, 80, 18 ,7, 9, SW, None, None, ,  
12/06/2017 23:33, 22, 83, 18 ,8, 9, W, None, None, ,  
12/06/2017 23:33, 22, 83, 18 ,8, 9, W, None, None, ,  
12/06/2017 23:23, 21, 86, 17 ,6, 6, W, None, None, ,  
12/06/2017 23:18, 20, 86, 17 ,6, 6, W, None, None, ,  
12/06/2017 23:13, 21, 85, 17 ,4, 6, W, None, None, ,  
12/06/2017 23:03, 21, 85, 17 ,4, 6, SW, None, None, ,  
12/06/2017 23:03, 21, 85, 17 ,4, 6, SW, None, None, ,  
12/06/2017 22:53, 21, 85, 17 ,6, 7, SW, None, None, ,  
12/06/2017 22:48, 21, 85, 17 ,6, 7, SW, None, None, ,  
12/06/2017 22:43, 21, 86, 18 ,6, 7, W, None, None, ,  
12/06/2017 22:33, 21, 87, 18 ,6, 7, W, None, None, ,  
12/06/2017 22:33, 21, 87, 18 ,6, 7, W, None, None, ,  
12/06/2017 22:23, 20, 87, 17 ,4, 6, W, None, None, ,  
12/06/2017 22:18, 20, 88, 17 ,4, 6, SW, None, None, ,  
12/06/2017 22:12, 20, 87, 17 ,5, 6, SW, None, None, ,  
12/06/2017 22:03, 20, 88, 17 ,6, 6, SW, None, None, ,  
12/06/2017 22:02, 20, 88, 17 ,5, 6, SW, None, None, ,  
12/06/2017 21:52, 20, 88, 17 ,6, 7, SW, None, None, ,  
12/06/2017 21:48, 20, 88, 17 ,6, 7, SW, None, None, ,  
12/06/2017 21:42, 21, 87, 18 ,6, 7, SW, None, None, ,  
12/06/2017 21:33, 21, 87, 18 ,5, 6, SW, None, None, ,  
12/06/2017 21:32, 21, 87, 18 ,6, 6, SW, None, None, ,  
12/06/2017 21:22, 21, 87, 18 ,5, 7, SW, None, None, ,  
12/06/2017 21:18, 21, 87, 18 ,5, 7, SW, None, None, ,  
12/06/2017 21:12, 21, 87, 18 ,6, 7, SW, None, None, ,  
12/06/2017 21:03, 21, 87, 18 ,5, 6, SW, None, None, ,  
12/06/2017 21:02, 21, 87, 18 ,5, 6, SW, None, None, ,  
12/06/2017 20:52, 21, 87, 18 ,4, 6, SW, None, None, ,  
12/06/2017 20:48, 21, 87, 18 ,4, 6, SW, None, None, ,  
12/06/2017 20:42, 21, 87, 18 ,4, 5, SW, None, None, ,  
12/06/2017 20:33, 21, 87, 18 ,4, 4, SW, None, None, ,  
12/06/2017 20:32, 21, 87, 18 ,4, 4, SW, None, None, ,  
12/06/2017 20:22, 21, 87, 18 ,3, 4, SW, None, None, ,  
12/06/2017 20:18, 21, 86, 18 ,3, 5, SW, None, None, ,  
12/06/2017 20:12, 21, 87, 18 ,4, 6, SW, None, None, ,  
12/06/2017 20:03, 21, 88, 18 ,4, 6, W, None, None, ,  
12/06/2017 20:02, 20, 88, 17 ,4, 6, W, None, None, ,  
12/06/2017 19:52, 20, 88, 17 ,4, 6, SW, None, None, ,  
12/06/2017 19:48, 20, 89, 17 ,5, 6, SW, None, None, ,  
12/06/2017 19:42, 20, 88, 17 ,4, 6, SW, None, None, ,  
12/06/2017 19:33, 20, 88, 17 ,4, 6, W, None, None, ,  
12/06/2017 19:31, 20, 88, 17 ,4, 6, W, None, None, ,  
12/06/2017 19:21, 19, 87, 16 ,6, 9, SW, None, None, ,  
12/06/2017 19:18, 19, 88, 16 ,6, 7, SW, None, None, ,  
12/06/2017 19:11, 20, 88, 17 ,4, 4, SW, None, None, ,  
12/06/2017 19:03, 20, 85, 17 ,2, 2, S, None, None, ,  
12/06/2017 19:01, 21, 86, 17 ,1, 1, W, None, None, ,  
12/06/2017 18:51, 20, 88, 17 ,1, 3, SW, None, None, ,  
12/06/2017 18:48, 20, 87, 17 ,1, 4, W, None, None, ,  
Change End Date:

Copyright © 1998-2015 Vaisala, Inc.
All Rights Reserved
Send comments about the data to:
SCAN Web ® is a registered trademark of Vaisala, Inc.
SCAN Web Version 6.0